Regional Weather Roundup
Issued by NWS

Home | Current Version | Previous Version | Text Only | Print | Product List | Glossary On
Versions: 1 2 3 4 5 6 7 8 9 10 11 12 13 14 15 16 17 18 19 20 21 22 23 24 25 26 27 28 29 30 31 32 33 34 35 36 37 38 39 40 41 42 43 44 45 46 47 48 49 50
000
ASUS44 KFWD 020715
RWRTX
NORTH TEXAS HOURLY WEATHER ROUNDUP
NATIONAL WEATHER SERVICE FORT WORTH TX
200 AM CDT SUN AUG 02 2015

NOTE: "FAIR" INDICATES FEW OR NO CLOUDS BELOW 12,000 FEET WITH NO
SIGNIFICANT WEATHER AND/OR OBSTRUCTIONS TO VISIBILITY.

TXZ118-119-020800-
DALLAS/FORT WORTH METROPLEX

CITY           SKY/WX    TMP DP  RH WIND       PRES   REMARKS
DFW AIRPORT    MOCLDY    86  56  35 SE9       29.95S
DALLAS LOVE    CLOUDY    86  57  37 SE12      29.95S
FTW MEACHAM    PTCLDY    84  60  44 SE6       29.95S
DAL-EXECUTIVE  MOCLDY    83  58  42 SE6       29.95F
FTW-ALLIANCE   MOCLDY    80  61  52 SE3       29.95S
FTW-NAS-JRB    PTCLDY    85  59  41 SE6       29.95F
FTW-SPINKS     MOCLDY    78  62  58 CALM      29.97S
ARLINGTON      MOCLDY    86  59  39 SE6       29.95F
GRAND PRAIRIE  MOCLDY    85  59  42 E5        29.97S
ADDISON        CLOUDY    86  59  39 SE8       29.97S
MESQUITE       PTCLDY    81  58  45 SE3       29.95F
LANCASTER      PTCLDY    79  58  48 CALM      29.96F
$$

TXZ091>094-102>105-117-120-121-131>134-020800-
NORTH CENTRAL TEXAS

CITY           SKY/WX    TMP DP  RH WIND       PRES   REMARKS
SHRMAN/DENISON PTCLDY    82  61  48 SE9       29.97F
GAINESVILLE    MOCLDY    76  62  61 CALM      29.99S
BOWIE          PTCLDY    75  67  75 CALM      29.98S
DECATUR        PTCLDY    80  59  47 SE5       29.97F
DENTON         MOCLDY    80  63  55 SE5       29.95F
MCKINNEY       MOCLDY    78  66  66 E3        29.96F
GREENVILLE     CLEAR     72  63  73 CALM      29.97S
ROCKWALL       CLEAR     80  60  50 SE5       29.95S
TERRELL        CLEAR     79  60  52 E3        29.96S
WAXAHACHIE     MOCLDY    81  64  55 CALM      29.97F
CLEBURNE         N/A     82  59  44 E7        29.98S
GRANBURY       PTCLDY    83  60  45 SE5       29.97S
$$

TXZ083>090-098>101-113>116-127>130-139>142-154-155-020800-
WESTERN NORTH TEXAS

CITY           SKY/WX    TMP DP  RH WIND       PRES   REMARKS
WICHITA FALLS  MOCLDY    76  70  82 E3        29.97F
WF-KICKAPOO    MOCLDY    77  69  77 N6        29.98F
VERNON         MOCLDY    76  67  73 E3        29.98F
ABILENE        CLEAR     78  61  55 SE8       30.00F
ABILENE-DYESS  MOCLDY    80  64  56 SE6       29.98F
BRECKENRIDGE   MOCLDY    81  65  59 SE6       29.97F
GRAHAM         CLOUDY    76  70  80 CALM      29.96F
MINERAL WELLS  MOCLDY    78  66  66 SE5       29.96S
STEPHENVILLE   MOCLDY    82  59  45 SE6       30.00F
COMANCHE       CLOUDY    78  59  52 SE3       29.98F
BROWNWOOD      CLOUDY    77  59  53 CALM      29.99S
COLEMAN        MOCLDY    77  62  58 CALM      30.00S
BRADY          CLOUDY    81  57  44 E3        30.00S
$$

TXZ143>147-156>162-174-175-020800-
CENTRAL TEXAS

CITY           SKY/WX    TMP DP  RH WIND       PRES   REMARKS
WACO           MOCLDY    80  61  52 E6        29.94F
WACO-MCGREGOR  CLEAR     79  55  44 S3        29.96S
HILLSBORO      PTCLDY    82  59  46 E7        29.96R
CORSICANA      CLEAR     79  64  60 E7        29.96S
MEXIA          CLEAR     77  60  56 E6        29.94S
HEARNE         CLEAR     71  63  73 CALM      29.94F
CAMERON        CLEAR     77  62  60 CALM      29.93F
TEMPLE         PTCLDY    81  57  44 SE7       29.94F
KILLEEN        PTCLDY    81  58  45 SE5       29.94F
KILLEEN-SKYLRK CLEAR     82  57  42 SE7       29.94F
FORT HOOD      PTCLDY    79  60  52 SE6       29.94F
GATESVILLE     CLEAR     79  61  53 CALM      29.98S
HAMILTON       CLOUDY    80  56  43 S3        29.99S
LAMPASAS       CLEAR     76  59  57 CALM      29.96S
$$

TXZ095>097-106>112-122>126-135>138-148>153-164>167-020800-
EAST TEXAS

CITY           SKY/WX    TMP DP  RH WIND       PRES   REMARKS
PARIS          CLEAR     75  61  60 E6        29.97S
SULPHUR SPRNGS PTCLDY    78  58  50 CALM      29.98F
MOUNT PLEASANT PTCLDY    71  63  75 CALM      29.97F
GILMER         PTCLDY    69  62  77 CALM      29.96S
MINEOLA        CLEAR     70  64  83 CALM      29.97S
TYLER          CLEAR     77  60  55 CALM      29.95F
LONGVIEW       CLEAR     74  64  71 CALM      29.95S
MARSHALL       CLEAR     73  68  84 CALM      29.98S
ATHENS         CLEAR     70  61  73 CALM      29.95S
PALESTINE      CLEAR     78  60  52 E6        29.96S
JACKSONVILLE   CLEAR     79  57  46 E3        29.99S
HENDERSON      CLEAR     69  63  81 CALM      29.97S
CENTER         FAIR      70  64  83 CALM      29.95S
NACOGDOCHES    CLEAR     66  63  88 CALM      29.94F
LUFKIN         CLEAR     73  64  73 CALM      29.94S
$$

SUPPLEMENTAL OBSERVATIONS (CENTRAL)

CITY           SKY/WX    TMP DP  RH WIND       PRES   REMARKS
LAKE TEXOMA      N/A     77  68  73 E1          N/A
CADDO GRASSLND   N/A     72  59  64 S1          N/A
PAT MAYSE LAKE   N/A    N/A N/A N/A SE2         N/A
GREENVILLE       N/A     75  55  50 S2          N/A
CEDAR HILL       N/A     84  57  39 SE5         N/A
ATHENS           N/A     75  63  64 E2          N/A
LAKE LIMESTONE   N/A     73  59  60 E1          N/A
MCGREGOR         N/A     82  57  42 SE6         N/A
TEMPLE           N/A     81  59  47 E3          N/A
$$

SUPPLEMENTAL OBSERVATIONS (WEST)

CITY           SKY/WX    TMP DP  RH WIND       PRES   REMARKS
MILLERS CREEK    N/A     75  70  83 E2          N/A
POSSUM KINGDOM   N/A     81  63  54 SE3         N/A
LBJ GRASSLAND    N/A    N/A N/A N/A SE3         N/A
GRANBURY         N/A     82  57  42 SE6         N/A
COMANCHE         N/A     79  57  47 S2          N/A
HAMBY            N/A     79  61  53 SE7         N/A
IVIE RESERVOIR   N/A     79  57  47 SE3         N/A
COLORADO BEND    N/A     79  54  41 S2          N/A
$$

SUPPLEMENTAL OBSERVATIONS (EAST)

CITY           SKY/WX    TMP DP  RH WIND       PRES   REMARKS
CLARKSVILLE      N/A     73  66  78 NW1         N/A
TEXARKANA        N/A     66  63  88 CALM        N/A
LINDEN           N/A     70  64  83 CALM        N/A
CADDO LAKE       N/A     64  63  94 CALM        N/A
GILMER           N/A     70  64  83 CALM        N/A
HENDERSON        N/A     70  63  78 CALM        N/A
LUFKIN           N/A     70  66  88 MISG        N/A
N SABINE NF      N/A     66  63  88 MISG        N/A
S SABINE NF      N/A     68  63  83 CALM        N/A
$$

SUPPLEMENTAL OBSERVATIONS ARE A COLLECTION OF AUTOMATED INSTRUMENTS
THAT ARE MAINTAINED BY A VARIETY OF FEDERAL AND STATE AGENCIES.
CERTAIN ELEMENTS...SUCH AS HUMIDITY VALUES AND SUSTAINED WIND
SPEEDS...MAY BE APPROXIMATED.




USA.gov is the U.S. government's official web portal to all federal, state and local government web resources and services.